Location: The D'Auria's Ocala Star Observatory
(29.0276°N, 82.1742°W)
Time: 09:31:59
(UTC-04:00)

Daily predictions for brighter satellites

Satellite Brightness Start Highest point End
(mag) Time Altitude Azimuth Time Altitude Azimuth Time Altitude Azimuth
H-2A R/B 2.2 20:32:04 10° WSW 20:34:40 74° S 20:44:06 10° E
Meteosat 1 Rocket2 3.8 20:38:59 10° WSW 20:43:47 79° S 20:51:09 10° E
OAO 3 Rocket 4.0 20:41:09 10° SSW 20:45:37 34° SSE 20:50:05 10° E
NOSS 2-2 (C) 3.9 20:42:02 10° SW 20:46:03 67° WNW 20:50:21 10° NNE
Meteor 1-26 Rocket 4.4 20:42:11 10° N 20:48:03 71° E 20:53:55 10° SSE
Cosmos 1933 4.3 20:46:41 10° NNW 20:50:41 51° W 20:54:39 10° S
Resurs 01 Rocket 2.4 20:46:37 10° S 20:50:55 55° W 20:55:14 10° NNW
Cosmos 1340 Rocket 3.0 20:53:45 10° S 20:57:43 79° W 21:01:44 10° N
SL-27 R/B 4.4 20:58:00 10° NNE 21:00:12 15° ENE 21:02:10 11° ESE
Cosmos 1356 Rocket 3.4 20:56:58 10° S 21:01:08 70° E 21:05:22 10° NNE
Cosmos 1892 2.7 20:57:37 10° S 21:01:23 63° E 21:05:11 10° NNE
USA 215 4.2 20:58:02 10° SSE 21:04:12 44° SW 21:10:25 10° NW
CZ-4B DEB 3.8 21:05:33 10° S 21:08:43 48° W 21:11:53 10° NNW
SEDSat Delta rocket 3.5 21:06:27 10° SW 21:10:38 37° SSE 21:14:03 12° E
H-2A R/B 2.6 21:08:28 10° SSE 21:12:08 70° ENE 21:15:50 10° N
Cosmos 1624 Rocket 4.4 21:07:01 10° SSW 21:12:13 69° WNW 21:17:31 10° N
CZ-4 DEB 3.7 21:10:23 15° SE 21:12:29 29° ENE 21:15:16 10° NNE
Cosmos 1782 4.0 21:09:17 10° NNE 21:12:37 24° E 21:14:50 16° ESE
GPS 2-05 Rocket1 3.9 21:09:07 10° W 21:12:44 48° NNW 21:16:18 10° ENE
Atlas Centaur 2 1.1 21:11:30 10° W 21:15:09 70° N 21:18:09 14° E
ERBS 3.3 21:12:23 10° NNW 21:15:35 34° NE 21:17:39 18° ESE
Coronas F rocket 1.8 21:14:33 10° SSW 21:17:08 57° W 21:19:44 10° N
Abrixas rocket 2.5 21:14:02 10° NW 21:17:24 62° SW 21:19:51 17° SE
Cosmos 1939 Rocket 4.3 21:17:48 16° ESE 21:19:23 21° ENE 21:22:19 10° NNE
OAO 1 Rocket 4.4 21:16:55 10° WSW 21:22:14 79° SSE 21:27:32 10° ENE
Cosmos 2084 3.1 21:22:07 10° SSW 21:26:01 83° ESE 21:29:52 10° NNE
ERS-1 Rocket 3.4 21:22:38 16° SE 21:26:19 42° ENE 21:31:03 10° N
Cosmos 1908 Rocket 4.1 21:22:56 12° SSE 21:26:33 37° E 21:30:38 10° NNE
Cosmos 1733 Rocket 3.2 21:24:11 10° S 21:28:35 76° W 21:32:59 10° N
CZ-3A R/B 3.8 21:00:35 10° W 21:29:36 63° SSW 21:33:01 21° ESE
ATLAS 5 CENTAUR R/B 2.5 21:24:16 10° NNW 21:30:26 66° ENE 21:35:09 19° SE
Cosmos 407 Rocket 4.2 21:27:32 10° N 21:32:25 37° ENE 21:35:06 23° ESE
Cosmos 1452 Rocket 3.4 21:31:09 10° S 21:36:21 71° ESE 21:41:36 10° NNE
Cosmos 2154 Rocket 4.1 21:33:11 10° SSE 21:39:14 56° E 21:45:17 10° NNE
deb Chang Zheng 4 3.6 21:36:03 10° NNE 21:40:26 60° ESE 21:44:46 10° S
USA 234 4.1 21:39:04 10° ENE 21:47:38 16° SSE 21:49:10 10° S
Cosmos 1408 3.0 21:43:50 36° ESE 21:44:25 39° E 21:47:51 10° NNE
COSMOS 2406 3.2 21:39:05 10° NNW 21:44:50 88° ENE 21:48:47 21° SSE
Nimbus 7 Rocket 4.4 21:40:11 10° NNE 21:46:04 62° ESE 21:52:00 10° S
YAOGAN 11 4.1 21:43:16 19° SSE 21:46:31 89° WSW 21:51:05 10° NNW
Cosmos 2278 Rocket 2.1 21:40:56 10° S 21:46:33 72° ESE 21:52:13 10° NNE
ALOS 3.7 21:42:38 10° SSW 21:46:55 36° W 21:51:14 10° NNW
Cosmos 1190 Rocket 3.9 21:41:56 10° N 21:47:07 67° ENE 21:49:53 27° SSE
Cosmos 1825 2.4 21:47:48 38° SE 21:48:44 48° E 21:52:25 10° NNE
SJ-11-01 4.2 21:46:17 22° SSE 21:49:20 80° ENE 21:54:06 10° N
Cosmos 1844 Rocket 3.8 21:44:18 10° SW 21:49:42 46° WNW 21:55:07 10° N
Cosmos 1844 4.2 21:45:47 10° SSW 21:51:27 63° WNW 21:57:12 10° NNE
H-2A R/B 2.2 21:55:26 40° ESE 21:56:33 53° ENE 22:00:42 10° N
Cosmos 1184 Rocket 3.2 21:59:21 47° NE 21:59:21 47° NE 22:02:05 10° NNE
Intelsat 3F5 C 4.1 21:56:36 10° W 21:59:49 67° N 21:59:54 67° N
CENTAUR R/B 3.6 21:58:58 10° NW 22:06:54 58° WSW 22:12:57 19° S
Cosmos 2082 Rocket 4.0 22:09:28 10° NNE 22:12:40 15° ENE 22:13:01 15° ENE
ISS 0.0 22:11:51 10° WNW 22:13:44 14° NW 22:15:38 10° N
EO 1 Delta rocket 4.2 22:08:33 10° N 22:14:12 72° WNW 22:17:42 19° SSW
Cosmos 1862 4.0 22:14:21 23° SSW 22:16:37 53° W 22:20:36 10° N
SPOT 5 3.0 22:15:47 50° SE 22:16:58 66° ENE 22:22:17 10° N
Centaur D-1A AC-32 2.4 22:12:31 10° WSW 22:16:51 46° SSW 22:16:51 46° SSW
Cosmos 676 Rocket 3.9 22:12:33 10° NNW 22:17:46 77° ENE 22:18:54 55° SE
Cosmos 1238 Rocket 3.0 22:15:39 10° N 22:18:32 56° NNE 22:18:32 56° NNE
Cosmos 2297 3.6 22:19:07 34° S 22:21:37 70° ESE 22:27:19 10° NNE
Cosmos 1954 Rocket 3.9 22:17:18 10° N 22:22:29 64° ENE 22:23:04 59° ESE
Okean 2 Rocket 3.0 22:25:23 73° SSW 22:25:47 86° W 22:30:13 10° N
Centaur AC-125 4.0 22:00:50 10° WSW 22:28:02 59° S 22:29:43 47° SE
OAO 3 Rocket 3.4 22:24:05 10° WSW 22:29:03 72° NNW 22:30:19 48° NE
COS B Rocket 3.9 22:25:22 10° N 22:29:06 47° W 22:29:13 47° W
Okean 3 3.5 22:28:33 10° N 22:32:25 72° N 22:32:25 72° N
Cosmos 2218 Rocket 4.0 22:33:57 56° ESE 22:34:44 61° E 22:41:01 10° NNE
Cosmos 1606 3.9 22:33:50 10° NNW 22:37:28 37° W 22:37:46 37° WSW
Nadezhda 3 Rocket 4.4 22:34:11 10° NNW 22:40:26 62° W 22:43:14 34° SSW
Meteor 1-27 Rocket 4.4 22:36:20 10° NNW 22:41:39 49° W 22:43:36 34° SW
SL-08 R/B 4.4 22:44:15 66° SE 22:44:56 72° E 22:51:22 10° N
Meteosat 1 Rocket2 4.3 22:38:45 10° W 22:45:04 80° S 22:47:26 52° ESE
MetOp-B 4.1 22:46:20 72° SSW 22:46:44 77° WSW 22:52:06 10° NNW
Envisat 4.1 22:46:06 31° SW 22:47:35 38° W 22:52:18 10° NNW
BREEZE-M DEB (TANK) 4.2 22:40:37 10° NW 22:47:42 29° NNE 22:48:20 27° NE
Cosmos 1959 Rocket 4.3 22:50:04 75° SSE 22:50:35 84° E 22:56:43 10° N
Cosmos 1975 Rocket 4.2 22:57:03 10° NNW 23:00:24 41° WNW 23:00:24 41° WNW
Atlas Centaur 2 3.8 23:00:15 10° W 23:00:49 14° W 23:00:49 14° W
ARGOS 3.3 23:05:13 67° NNW 23:05:13 67° NNW 23:09:51 10° NNW
H-2A R/B 3.1 23:13:15 38° NNE 23:13:15 38° NNE 23:16:48 10° N
Cosmos 1140 Rocket 4.4 23:15:11 10° NNW 23:19:08 43° WNW 23:19:08 43° WNW
Timation 2 Rocket 4.1 23:14:11 10° NNW 23:19:21 66° NW 23:19:21 66° NW
USA 234 3.4 23:20:50 10° NE 23:27:18 67° NW 23:30:49 29° WSW
Cosmos 1833 Rocket 3.7 23:30:07 10° NNW 23:33:42 40° N 23:33:42 40° N
Terra 3.9 23:52:22 24° NNW 23:52:22 24° NNW 23:54:16 10° NNW
CZ-3C R/B 4.0 23:43:34 10° WSW 23:50:58 24° WSW 23:50:58 24° WSW
